Track FLOCK 4V 3 now! 10-day predictions FLOCK 4V 3 is classified as:
1 46322U 20061BC 22141.45468072 .00009175 00000-0 51315-3 0 9992 2 46322 97.4506 212.7962 0001092 268.9499 91.1607 15.13687841 94403